Погода в Верхнем Икорце

Россия / Воронежская область     51°10′57″N   39°47′44″E
темп.,
°C
ветер,
м/с
пор.,
м/с
влажн.,
%
обл.,
%
осадки,
мм/ч
давл.,
гПа
погр.,
м
8 августа, пн
пн800:00+21вюв333893 0.0 101730
03:00+22вюв343681 0.0 101752
06:00+20вюв114661 0.0 101811
09:00+27всв223499 0.0 1018294
12:00+31всв222699 0.0 10182033
15:00+33сз232167 0.0 10173352
18:00+27ссв353666 0.0 101881
21:00+23св48381 0.0 1018114
9 августа, вт
вт900:00+23всв47395 0.0 101893
03:00+20вюв33455 0.0 101841
06:00+20юв33475 0.0 101833
09:00+27ю343322 0.0 1018396
12:00+31ю45265 0.0 10181378
15:00+33юз34229 0.0 10173442
18:00+31зсз353044 0.0 1016182
21:00+25с2236100 0.0 101611
10 августа, ср
ср1000:00+22всв2243100 0.0 101611
03:00+20в22475 0.0 101616
06:00+20ссв335362 0.0 101735
09:00+27св223893 0.0 1017380
12:00+32ссв2327100 0.0 10161396
15:00+33с442497 0.0 10152403
18:00+29св61039100 0.0 1015529
21:00+24св71456100 0.0 1016380
11 августа, чт
чт1100:00+22ссв51160100 0.0 1017350
03:00+20св61368100 0.0 1017309
06:00+20св5107299 0.1 1018321
09:00+25св675457 0.1 1019614
12:00+29св774230 0.0 1019941
15:00+32св773219 0.0 10171698
18:00+29ссв811438 0.0 1018628
21:00+24св613495 0.1 1020329
12 августа, пт
пт1200:00+21всв412540 0.0 1021273
03:00+19всв411580 0.0 1021225
06:00+19всв511570 0.0 1022233
09:00+26всв57460 0.0 1022593
12:00+30св55350 0.0 10211352
15:00+32ссв54310 0.0 10202013
18:00+29ссв67370 0.0 1020663
21:00+23св512490 0.0 1021231